This demonstration page uses our WeatherBlox Daily Observations layout. Learn more.

Left ArrowRight Arrow

Hourly Observations for November 15, 2022

Temp ( °F °C ) Dew Point ( °F °C ) Humidity (%) Winds ( mph kmh ) Pressure ( in mb ) Visibility ( mi km ) Precip ( " mm )
12:55 am 00:55 Cloudy 31 -0.7 21 -6.3 66 66 NNW 7 11 30.27 1025 10 16 0.00 0.00
1:55 am 01:55 Partly Cloudy 29 -1.4 21 -6.2 70 70 NW 7 11 30.27 1025 10 16 0.00 0.00
2:55 am 02:55 Mostly Cloudy 28 -2.1 19 -7.4 67 67 NNW 5 7 30.28 1025 10 16 0.00 0.00
3:55 am 03:55 Cloudy 26 -3.4 19 -7.2 75 75 NW 8 13 30.29 1026 10 16 0.00 0.00
4:55 am 04:55 Cloudy 27 -2.8 19 -7.5 70 70 NW 6 9 30.30 1026 10 16 0.00 0.00
5:55 am 05:55 Cloudy 26 -3.4 18 -7.7 72 72 WNW 8 13 30.31 1027 10 16 0.00 0.00
6:55 am 06:55 Mostly Cloudy 26 -3.5 17 -8.4 69 69 NW 7 11 30.32 1027 10 16 0.00 0.00
7:55 am 07:55 Mostly Cloudy 26 -3.3 17 -8.4 68 68 NW 6 9 30.33 1027 10 16 0.00 0.00
8:55 am 08:55 Cloudy 28 -2.2 17 -8.3 63 63 NW 8 13 30.35 1028 10 16 0.00 0.00
9:55 am 09:55 Mostly Cloudy 31 -0.7 18 -7.9 58 58 NNW 9 15 30.35 1028 10 16 0.00 0.00
10:55 am 10:55 Mostly Cloudy 30 -1.3 19 -7 65 65 NW 13 20 30.36 1028 10 16 0.00 0.00
11:15 am 11:15 Cloudy with Light Snow 30 -1 19 -7 64 64 NW 13 20 30.36 1028 10 16 0.00 0.00
11:55 am 11:55 Cloudy with Light Snow 31 -0.4 20 -6.4 64 64 NW 13 20 30.35 1028 10 16 0.01 0.13
12:55 pm 12:55 Cloudy with Light Snow 31 -0.8 20 -6.4 66 66 NW 14 22 30.33 1027 10 16 0.01 0.13
1:55 pm 13:55 Cloudy 31 -0.5 19 -7.1 61 61 NW 16 26 30.33 1027 10 16 0.01 0.13
2:19 pm 14:19 Cloudy with Light Snow 30 -1 19 -7 64 64 WNW 16 26 30.34 1028 10 16 0.00 0.00
2:55 pm 14:55 Cloudy with Light Snow 31 -0.8 18 -7.6 60 60 WNW 17 28 30.34 1028 10 16 0.01 0.13
3:55 pm 15:55 Mostly Cloudy 31 -0.6 18 -7.9 58 58 WNW 16 26 30.36 1028 10 16 0.01 0.13
4:55 pm 16:55 Cloudy 30 -1 16 -8.7 56 56 WNW 15 24 30.37 1029 10 16 0.00 0.00
5:55 pm 17:55 Mostly Cloudy 28 -2 16 -9 59 59 NW 12 19 30.40 1029 10 16 0.00 0.00
6:55 pm 18:55 Mostly Clear 26 -3.1 14 -9.8 60 60 NW 8 13 30.40 1029 10 16 0.00 0.00
7:55 pm 19:55 Clear 26 -3.6 14 -9.8 62 62 NW 7 11 30.41 1030 10 16 0.00 0.00
8:55 pm 20:55 Partly Cloudy 23 -5 14 -10 68 68 NW 7 11 30.41 1030 10 16 0.00 0.00
9:55 pm 21:55 Mostly Clear 22 -5.3 13 -10.7 66 66 WNW 10 17 30.41 1030 10 16 0.00 0.00
10:55 pm 22:55 Mostly Cloudy 22 -5.3 12 -11.1 64 64 WNW 9 15 30.42 1030 10 16 0.00 0.00
11:55 pm 23:55 Cloudy 24 -4.4 13 -10.6 62 62 NW 18 30 30.40 1030 10 16 0.00 0.00

Powered by AerisWeather